Skip Page Navigation
NASA JPL Caltech
NASA Logo - Jet Propulsion Laboratory + View the NASA Portal
+ Center for Near-Earth Object Studies
JPL Home Earth Solar System Stars & Galaxies Technology
JPL Solar System Dynamics
BODIES ORBITS EPHEMERIDES TOOLS PHYSICAL DATA DISCOVERY FAQ SITE MAP
IMPORTANT: The SSD Announcement email list is now available. Major changes are coming in the near future, including possible hostname and/or URL changes. To be notified of such changes, subscribe to this email list.

Please visit this page for more details.


JPL Small-Body Database Browser
Search: [ help ]  
324233 (2006 BQ115)
Classification: Main-belt Asteroid          SPK-ID: 2324233
Ephemeris | Orbit Diagram | Orbital Elements | Mission Design | Physical Parameters | Discovery Circumstances | Close-Approach Data ]

[ show orbit diagram ]
Orbital Elements at Epoch 2459000.5 (2020-May-31.0) TDB
Reference: JPL 11 (heliocentric ecliptic J2000)
 Element Value Uncertainty (1-sigma)   Units 
e .05227676087146375 5.1535e-08  
a 3.038995357560988 4.195e-08 au
q 2.880126523964284 1.8206e-07 au
i 10.73800416821752 1.0764e-05 deg
node 154.6419646321043 2.8305e-05 deg
peri 284.7660919506228 0.00013926 deg
M 314.4874136912875 0.00014186 deg
tp 2459245.137199561425
(2021-Jan-30.63719956)
0.00076479 TDB
period 1935.055750177261
5.30
4.0067e-05
1.097e-07
d
yr
n .1860411515105041 3.8521e-09 deg/d
Q 3.197864191157693 4.4143e-08 au
  Orbit Determination Parameters
   # obs. used (total)      184  
   data-arc span      5896 days (16.14 yr)  
   first obs. used      2003-08-04  
   last obs. used      2019-09-25  
   planetary ephem.      DE431  
   SB-pert. ephem.      SB431-N16  
   condition code      0  
   norm. resid. RMS      .53925  
   source      ORB  
   producer      Otto Matic  
   solution date      2019-Nov-08 09:09:46  

Additional Information
 Earth MOID = 1.91986 au 
 Jupiter MOID = 1.93286 au 
 T_jup = 3.212 
[ hide covariance matrix ]
Orbital Elements at Epoch 2457476.5 (2016-Mar-29.0) TDB
Reference: JPL 11 (heliocentric ecliptic J2000)
 Element Value Uncertainty (1-sigma)   Units 
e .04915516123588064 5.2833e-08  
q 2.890178040116628 1.8616e-07 au
tp 2457295.955965557553
(2015-Sep-30.45596556)
0.00079695 TDB
node 154.8174331667177 2.8221e-05 deg
peri 282.3491150712876 0.00014814 deg
i 10.75105330722432 1.0782e-05 deg
  Orbit Determination Parameters
   # obs. used (total)      184  
   data-arc span      5896 days (16.14 yr)  
   first obs. used      2003-08-04  
   last obs. used      2019-09-25  
   planetary ephem.      DE431  
   SB-pert. ephem.      SB431-N16  
   condition code      0  
   norm. resid. RMS      .53925  
   source      ORB  
   producer      Otto Matic  
   solution date      2019-Nov-08 09:09:46  

Additional Information
 Jupiter MOID = 1.93286 au 
 T_jup = 3.212 
Orbit Covariance (6×6)
  e q tp node peri i
e 2.791370608321892E-15 -9.681039357575362E-15 -1.919054830154467E-11 -2.598124403437681E-15 -3.464906847526232E-12 1.233023356397797E-14
q -9.681039357575362E-15 3.465391623717606E-14 7.135552612128731E-11 1.714878335100692E-14 1.291015994258249E-11 -3.785959490037209E-14
tp -1.919054830154467E-11 7.135552612128731E-11 6.35121440696587E-7 1.842399286355533E-10 1.159259368620978E-7 -2.226975364213516E-10
node -2.598124403437681E-15 1.714878335100692E-14 1.842399286355533E-10 7.964268214825846E-10 -7.480201402683093E-10 1.343998581490917E-10
peri -3.464906847526232E-12 1.291015994258249E-11 1.159259368620978E-7 -7.480201402683093E-10 2.194634259247933E-8 -1.726879284914882E-10
i 1.233023356397797E-14 -3.785959490037209E-14 -2.226975364213516E-10 1.343998581490917E-10 -1.726879284914882E-10 1.16254596605953E-10

Ephemeris | Orbit Diagram | Orbital Elements | Mission Design | Physical Parameters | Discovery Circumstances | Close-Approach Data ]

Physical Parameter Table
Parameter Symbol Value Units Sigma Reference Notes
absolute magnitude H 15.7   n/a MPO494715  
diameter diameter 3.585 km 0.932 urn:nasa:pds:neowise_diameters_albedos::2.0[mainbelt] (http://adsabs.harvard.edu/abs/2011ApJ...741...68M)  
geometric albedo albedo 0.066   0.025 urn:nasa:pds:neowise_diameters_albedos::2.0[mainbelt] (http://adsabs.harvard.edu/abs/2011ApJ...741...68M)  

324233 (2006 BQ115)          Discovered 2006-Jan-26 by Spacewatch at Kitt Peak
Reference: 20120406/Numbers.arcLast Updated: 2012-04-09

[ show close-approach data ]
Ephemeris | Orbit Diagram | Orbital Elements | Mission Design | Physical Parameters | Discovery Circumstances | Close-Approach Data ]
ABOUT SSD CREDITS/AWARDS PRIVACY/COPYRIGHT GLOSSARY LINKS
FirstGov 2020-Apr-02 01:24 UT
(server date/time)  
NASA Home Page
Site Manager:   Ryan S. Park
Webmaster  Alan B. Chamberlin